Location: Eaton
(41.3139°N, 82.0207°W)
Time: 02:07:53
(UTC+00:00)

GP-B - Pass Details

Date: 17 June 2021
Orbit: 631 x 635 km, 89.8° (Epoch: 02 August)

Event Time Altitude Azimuth Distance (km) Brightness Sun altitude
Rises 06:00:25 0° 356° (N) 2,942 7.8 -24.9°
Reaches altitude 10° 06:02:41 10° 352° (N) 2,029 6.7 -24.8°
Enters shadow 06:06:52 51° 284° (WNW) 800 3.5 -24.7°
